FENGYUN 1C DEB, 30155

Orbit data source: Space-Track

FENGYUN 1C DEB, 30155 is space debris in SSO originally from a launch on Mon, 10 May 1999 UTC launched from the Taiyaun Space Center, China (TSC). Fengyun 1C debris stems from the Chinese weather satellite Fengyun-1C, which was intentionally destroyed by a Chinese anti-satellite missile in 2007. This event dramatically increased the amount of space debris, with thousands of trackable fragments posing hazards to satellites and human spaceflight. The Fengyun 1C debris cloud has become a focal point in discussions about space sustainability and the need for international regulations to prevent the creation of new debris.

Loading next visibility...
Identifier
30155, 1999-025TL
Orbit
SSO
Country
Flag of CNCN / PRC
Related business
Manufacturer
Unknown
Mission
Spacecraft
Bus & Motor
Unknown
Mass
Unknown
Launch date (UTC)
1999-05-10 (27 years ago)
Launch vehicle
Unknown
Launch site
Taiyaun Space Center, China (TSC)
Object type
Payload
Rocket body
Debris
Shape & HBR
Unknown shape, 0.1 m
Radar Cross Section
Small (<0.1 m²)

Expand to show TLE details & history
Last TLE update: 10 hours ago

TLE from 10 hours ago
0 FENGYUN 1C DEB
1 30155U 99025TL  26106.88422415  .00001855  00000-0  16304-2 0  9993
2 30155  99.7466 188.0424 0238347  22.3309 338.8012 13.74655474955831
Epoch: 2026-04-16T21:13Z
TLE epoch observation values (Epoch: 2026-04-16T21:13:16.966Z)
Latitude
-0.00009°
Longitude
24.69636°
Altitude
822.682 km
Speed
7.524 km/s
True Right ascension
12h 32m 10s
True Declination
0° 00' 00"
Sunlit
Object was in full shadow at epoch
Visualization orbit readout
Latitude
Unknown
Longitude
Unknown
Altitude
Unknown
Speed
Unknown
Apparent Right ascension
Unknown
Apparent Declination
Unknown
Sunlit
N/A
Visualization observer readout
Local Sidereal Time
13:57:47
Azimuth
Unknown
Elevation
Unknown
Doppler factor
Unknown
Orbital elements
Apogee altitude
1,155.556 km
Perigee altitude
804.79 km
Semi-major axis
7,358.31 km
Eccentricity
0.02383
Inclination
99.7466°
RAAN
188.0424°
Arg. of periapsis
22.3309°
True anomaly
337.78543°
Mean anomaly
338.8012°
Eccentric anomaly
338.29618°
Mean motion
3.43856 °/min
Orbital period
104.7 mins
BSTAR
0.0016304
Loading maneuver chart data...
Computing Atmospheric mass density...
Loading historical data...
Loading historical data...
Loading historical data...
Loading historical data...
Loading historical data...
Loading historical data...
Loading historical data...

Documentation

Showing up to 5 results
|